Zurück zum Katalog

STARLINK-37509

AktivKommunikationVLEO
NORAD 69444·PAYLOAD·🇺🇸 United States

Gestartet Jun 8, 2026 von Cape Canaveral Space Force Station

Loading…

Nächste Überflüge (nächste 24 Stunden)

TLE

AktuellSource: CelesTrak SupGP

Epoche: Sep 15, 2026, 02:47 UTC

1 69444C 26127B   26258.11645833 -.00087155  00000+0 -25750-2 0  2585
2 69444  53.1573 190.9015 0001282  82.4561 345.2060 15.34433667    10

Verfolge STARLINK-37509 in Echtzeit mit AllMySat

Download on the App Store